period_start,C,m1,H,J0,J1,J2,J3,J4,J5,JA,JB,JC,JD,JJ,JK,JN,#
2015-07-27 00:04:32,0.00,0.12,0.00,24.08,27.61,29.97,4.73,26.32,1017.62,2038.00,3352.05,3214.00,3508.00,350.09,346.94,8.41,0000 0000 0000 0000 000000
2015-07-27 00:09:33,-0.00,0.12,0.00,24.09,27.60,29.97,4.76,26.40,1017.61,2038.00,3352.05,3214.01,3508.00,350.08,347.03,8.44,0000 0000 0000 0000 000000
2015-07-27 00:14:34,0.00,0.12,0.00,24.08,27.60,29.96,4.74,26.43,1017.60,2038.00,3352.08,3214.00,3508.00,349.87,346.60,8.47,0000 0000 0000 0000 000000
2015-07-27 00:19:35,0.00,0.12,0.00,24.08,27.60,29.97,4.82,26.43,1017.68,2038.00,3352.04,3214.00,3508.00,350.07,346.84,8.50,0000 0000 0000 0000 000000
2015-07-27 00:24:37,0.00,0.12,0.00,24.09,27.60,29.96,4.81,26.45,1017.84,2038.00,3352.01,3214.00,3508.00,349.83,346.80,8.53,0000 0000 0000 0000 000000
2015-07-27 00:29:38,-0.00,0.12,0.00,24.09,27.60,29.96,4.78,26.32,1017.61,2038.00,3352.00,3214.00,3508.00,350.39,347.20,8.56,0000 0000 0000 0000 000000
2015-07-27 00:34:39,0.00,0.12,0.00,24.08,27.60,29.95,4.79,26.50,1017.59,2038.00,3352.00,3214.00,3508.00,350.13,346.89,8.59,0000 0000 0000 0000 000000
2015-07-27 00:39:40,0.00,0.12,0.00,24.07,27.60,29.96,4.75,26.42,1017.60,2038.00,3352.00,3214.00,3507.99,350.23,346.90,8.62,0000 0000 0000 0000 000000
2015-07-27 00:44:41,0.00,0.12,0.00,24.07,27.60,29.96,4.75,26.36,1017.60,2038.01,3352.01,3214.01,3507.99,349.86,346.60,8.65,0000 0000 0000 0000 000000
2015-07-27 00:49:43,0.00,0.12,0.00,24.07,27.60,29.97,4.72,26.42,1017.60,2038.01,3352.00,3214.00,3507.99,349.25,346.09,8.68,0000 0000 0000 0000 000000
2015-07-27 00:54:44,-0.00,0.12,0.00,24.07,27.60,29.95,4.77,26.46,1017.72,2038.01,3351.99,3214.00,3507.99,349.71,346.50,8.71,0000 0000 0000 0000 000000
2015-07-27 00:59:45,0.00,0.12,0.00,24.07,27.60,29.94,4.75,26.52,1018.04,2038.00,3351.98,3214.00,3507.97,350.08,346.72,8.74,0000 0000 0000 0000 000000
2015-07-27 01:04:46,0.00,0.12,0.00,24.07,27.60,29.95,4.76,26.39,1018.08,2038.00,3351.99,3214.00,3507.97,349.66,346.71,8.77,0000 0000 0000 0000 000000
2015-07-27 01:09:47,0.00,0.12,0.00,24.07,27.60,29.96,4.72,26.41,1018.08,2038.01,3351.98,3214.00,3507.98,349.37,346.36,8.79,0000 0000 0000 0000 000000
2015-07-27 01:14:49,0.01,0.12,0.00,24.06,27.59,29.94,4.71,26.44,1018.07,2038.00,3351.62,3213.99,3507.84,350.05,347.01,8.82,0000 0000 0000 0000 000000
2015-07-27 01:19:50,0.03,0.12,0.00,24.05,27.59,29.95,4.77,26.48,1018.02,2038.00,3351.10,3213.94,3507.45,350.25,347.12,8.85,0000 0000 0000 0000 000000
2015-07-27 01:24:51,-0.00,0.12,0.00,24.05,27.59,29.95,4.75,26.44,1018.04,2038.00,3351.06,3213.95,3507.35,349.79,346.70,8.88,0000 0000 0000 0000 000000
2015-07-27 01:29:52,0.00,0.12,0.00,24.06,27.58,29.96,4.75,26.43,1018.02,2038.01,3351.05,3213.95,3507.35,350.09,347.13,8.91,0000 0000 0000 0000 000000
2015-07-27 01:34:54,0.00,0.12,0.00,24.07,27.58,29.95,4.70,26.44,1017.92,2038.01,3351.01,3213.90,3507.14,349.65,346.54,8.94,0000 0000 0000 0000 000000
2015-07-27 01:39:55,0.00,0.12,0.00,24.06,27.57,29.95,4.70,26.38,1017.92,2038.00,3351.00,3213.72,3507.03,349.64,346.57,8.97,0000 0000 0000 0000 000000
2015-07-27 01:44:56,0.01,0.12,0.00,24.06,27.57,29.94,4.72,26.38,1017.85,2038.00,3351.00,3213.76,3507.02,349.88,346.87,9.00,0000 0000 0000 0000 000000
2015-07-27 01:49:57,0.01,0.12,0.00,24.07,27.57,29.96,4.79,26.48,1017.71,2038.01,3351.00,3213.71,3507.03,350.29,347.32,9.03,0000 0000 0000 0000 000000
2015-07-27 01:54:58,0.01,0.12,0.00,24.07,27.57,29.95,4.73,26.43,1017.84,2038.00,3350.99,3213.34,3507.01,349.93,346.79,9.06,0000 0000 0000 0000 000000
2015-07-27 02:00:00,0.01,0.12,0.00,24.07,27.57,29.94,4.78,26.63,1017.88,2038.00,3350.80,3213.07,3507.00,350.19,347.01,9.09,0000 0000 0000 0000 000000
2015-07-27 02:05:01,-0.00,0.12,0.00,24.07,27.57,29.94,4.74,26.44,1017.95,2038.00,3350.92,3213.08,3507.00,350.00,346.96,9.12,0000 0000 0000 0000 000000
2015-07-27 02:10:02,0.01,0.12,0.00,24.07,27.57,29.93,4.80,26.49,1018.05,2038.01,3350.76,3213.12,3507.00,349.96,346.94,9.15,0000 0000 0000 0000 000000
2015-07-27 02:15:04,0.00,0.12,0.00,24.07,27.57,29.93,4.79,26.48,1018.02,2038.01,3350.43,3213.03,3507.00,350.46,347.29,9.18,0000 0000 0000 0000 000000
2015-07-27 02:20:05,0.01,0.12,0.00,24.07,27.57,29.93,4.76,26.45,1017.93,2038.00,3350.30,3213.03,3507.00,349.68,346.56,9.20,0000 0000 0000 0000 000000
2015-07-27 02:25:06,0.01,0.12,0.00,24.07,27.57,29.95,4.77,26.36,1017.93,2038.00,3350.04,3213.01,3506.98,350.11,346.85,9.23,0000 0000 0000 0000 000000
2015-07-27 02:30:07,-0.00,0.12,0.00,24.07,27.57,29.94,4.84,26.59,1017.97,2038.00,3350.03,3213.01,3506.96,350.31,347.23,9.26,0000 0000 0000 0000 000000
2015-07-27 02:35:09,0.00,0.12,0.00,24.06,27.57,29.95,4.73,26.78,1018.05,2038.01,3350.00,3213.00,3506.93,350.09,347.02,9.29,0000 0000 0000 0000 000000
2015-07-27 02:40:10,0.00,0.12,0.00,24.06,27.57,29.94,4.81,26.82,1018.07,2038.01,3350.00,3213.00,3506.96,349.94,347.11,9.32,0000 0000 0000 0000 000000
2015-07-27 02:45:12,0.00,0.12,0.00,24.05,27.57,29.94,4.74,26.80,1018.04,2038.02,3350.00,3213.00,3506.94,350.17,347.13,9.35,0000 0000 0000 0000 000000
2015-07-27 02:50:12,0.01,0.12,0.00,24.07,27.57,29.94,4.75,26.77,1018.07,2038.05,3350.00,3213.00,3506.95,350.74,347.83,9.38,0000 0000 0000 0000 000000
2015-07-27 02:55:14,-0.00,0.12,0.00,24.08,27.57,29.94,4.84,26.89,1018.08,2038.05,3350.00,3213.00,3506.91,350.21,347.13,9.41,0000 0000 0000 0000 000000
2015-07-27 03:00:14,0.02,0.12,0.00,24.07,27.57,29.92,4.72,27.07,1018.05,2038.04,3349.82,3213.00,3506.23,349.62,346.57,9.44,0000 0000 0000 0000 000000
2015-07-27 03:05:16,-0.01,0.12,0.00,24.07,27.57,29.94,4.77,26.88,1018.07,2038.08,3349.95,3213.00,3506.58,350.23,347.00,9.47,0000 0000 0000 0000 000000
2015-07-27 03:10:17,0.01,0.12,0.00,24.07,27.57,29.92,4.84,26.89,1018.07,2038.05,3349.75,3213.00,3506.19,350.28,347.16,9.50,0000 0000 0000 0000 000000
2015-07-27 03:15:18,0.01,0.12,0.00,24.07,27.57,29.92,4.78,26.90,1018.07,2038.02,3349.09,3212.98,3506.01,350.29,347.22,9.53,0000 0000 0000 0000 000000
2015-07-27 03:20:20,0.00,0.12,0.00,24.06,27.57,29.94,4.82,26.85,1018.05,2038.02,3349.02,3212.97,3506.00,350.20,347.15,9.56,0000 0000 0000 0000 000000
2015-07-27 05:24:15,-3333.30,0.00,0.00,20.72,25.17,22.60,4.23,23.23,1017.99,1845.12,3112.93,2952.18,3235.03,305.68,306.43,0.00,0000 0000 0000 0000 000000
2015-07-27 05:29:16,0.00,0.00,0.00,20.82,25.00,23.92,4.80,25.85,1018.34,2048.02,3452.88,3276.03,3590.12,349.90,350.77,0.03,0000 0000 0000 0000 000000
2015-07-27 05:34:17,0.00,0.00,0.00,20.95,24.85,24.69,4.76,25.71,1018.57,2048.03,3452.65,3275.98,3589.98,349.97,350.62,0.06,0000 0000 0000 0000 000000
2015-07-27 05:39:18,0.01,0.00,0.00,21.08,24.73,25.36,4.75,25.88,1018.58,2048.78,3452.98,3276.34,3590.01,350.06,350.68,0.09,0000 0000 0000 0000 000000
2015-07-27 05:44:20,0.01,0.00,0.00,21.32,24.65,25.95,4.69,25.82,1018.70,2048.99,3452.98,3276.93,3590.10,349.70,350.06,0.12,0000 0000 0000 0000 000000
2015-07-27 05:49:21,0.01,0.00,0.00,21.58,24.61,26.29,4.79,25.79,1018.95,2049.05,3452.97,3276.98,3590.04,350.15,350.37,0.15,0000 0000 0000 0000 000000
2015-07-27 05:54:22,0.10,0.00,0.00,21.89,24.61,26.52,4.79,25.77,1019.06,2049.65,3452.85,3276.98,3590.01,349.61,349.60,0.18,0000 0000 0000 0000 000000
2015-07-27 05:59:24,0.05,0.01,0.00,22.22,24.64,26.71,4.76,25.76,1019.06,2049.90,3452.16,3276.73,3589.99,350.16,349.74,0.21,0000 0000 0000 0000 000000
2015-07-27 06:04:25,0.01,0.01,0.00,22.55,24.70,26.97,4.75,25.77,1019.07,2049.85,3452.01,3276.13,3589.59,349.64,348.70,0.24,0000 0000 0000 0000 000000
2015-07-27 06:09:26,-0.04,0.01,0.00,22.81,24.79,27.23,4.78,25.71,1019.09,2049.51,3451.94,3276.00,3589.02,350.20,349.06,0.26,0000 0000 0000 0000 000000
2015-07-27 06:14:27,0.02,0.00,0.00,23.17,24.90,27.56,4.72,25.67,1019.21,2049.12,3451.16,3275.55,3588.42,349.85,348.19,0.29,0000 0000 0000 0000 000000
2015-07-27 06:19:29,0.05,0.01,0.00,23.39,25.02,27.90,4.74,25.87,1019.48,2049.00,3450.18,3274.84,3587.50,349.57,347.77,0.32,0000 0000 0000 0000 000000
2015-07-27 06:24:30,0.04,0.01,0.00,23.38,25.16,28.09,4.75,25.54,1019.55,2048.86,3449.46,3274.04,3586.61,350.24,348.52,0.35,0000 0000 0000 0000 000000
2015-07-27 06:29:31,-0.04,0.01,0.00,23.45,25.30,28.22,4.69,25.48,1019.55,2048.11,3448.78,3273.28,3585.74,349.69,347.88,0.38,0000 0000 0000 0000 000000
2015-07-27 06:34:32,0.05,0.01,0.00,23.43,25.44,28.37,4.74,25.27,1019.56,2047.91,3447.95,3272.40,3584.76,349.92,348.11,0.41,0000 0000 0000 0000 000000
2015-07-27 06:39:33,-0.04,0.01,0.00,23.46,25.58,28.52,4.78,25.32,1019.57,2047.11,3447.02,3271.69,3583.78,350.23,348.15,0.44,0000 0000 0000 0000 000000
2015-07-27 06:44:34,0.06,0.01,0.00,23.53,25.71,28.62,4.70,25.13,1019.60,2047.00,3446.09,3270.83,3582.91,349.67,347.76,0.47,0000 0000 0000 0000 000000
2015-07-27 06:49:35,0.04,0.01,0.00,23.56,25.83,28.66,4.79,25.19,1019.65,2046.84,3445.23,3270.04,3582.05,350.11,348.16,0.50,0000 0000 0000 0000 000000
2015-07-27 06:54:37,-0.04,0.01,0.00,23.58,25.94,28.70,4.76,25.18,1019.71,2046.14,3444.73,3269.42,3581.23,349.80,347.79,0.53,0000 0000 0000 0000 000000
2015-07-27 06:59:38,0.04,0.01,0.00,23.60,26.04,28.75,4.74,25.16,1019.77,2046.00,3443.99,3268.85,3580.51,349.76,348.00,0.56,0000 0000 0000 0000 000000
2015-07-27 07:04:39,0.01,0.01,0.00,23.61,26.13,28.80,4.76,25.12,1019.82,2045.79,3443.17,3268.08,3579.85,350.09,348.03,0.59,0000 0000 0000 0000 000000
2015-07-27 07:09:40,-0.02,0.01,0.00,23.60,26.22,28.85,4.77,25.07,1019.76,2045.10,3442.55,3267.49,3579.03,350.12,348.19,0.62,0000 0000 0000 0000 000000
2015-07-27 07:14:42,0.03,0.01,0.00,23.60,26.29,28.91,4.75,25.06,1019.72,2044.99,3441.93,3266.94,3578.19,350.06,348.24,0.64,0000 0000 0000 0000 000000
2015-07-27 07:19:43,-0.04,0.01,0.00,23.61,26.37,28.93,4.75,25.14,1019.75,2044.45,3441.09,3266.14,3577.46,350.34,348.06,0.67,0000 0000 0000 0000 000000
2015-07-27 07:24:43,-0.00,0.01,0.00,23.62,26.43,28.97,4.77,25.07,1019.80,2044.02,3440.72,3265.85,3576.95,350.29,348.24,0.70,0000 0000 0000 0000 000000
2015-07-27 07:29:45,0.07,0.01,0.00,23.62,26.49,29.01,4.73,25.08,1019.80,2044.00,3440.02,3265.08,3576.14,349.98,348.02,0.73,0000 0000 0000 0000 000000
2015-07-27 07:34:46,0.01,0.01,0.00,23.62,26.54,29.04,4.75,25.12,1019.83,2043.95,3439.78,3264.92,3575.88,349.52,347.76,0.76,0000 0000 0000 0000 000000
2015-07-27 07:39:47,-0.05,0.01,0.00,23.62,26.58,29.06,4.75,25.02,1019.85,2043.31,3439.05,3264.16,3575.08,350.15,348.22,0.79,0000 0000 0000 0000 000000
2015-07-27 07:44:48,-0.00,0.01,0.00,23.62,26.63,29.09,4.79,24.95,1019.89,2043.04,3438.81,3263.99,3574.82,350.63,348.43,0.82,0000 0000 0000 0000 000000
2015-07-27 07:49:50,0.07,0.01,0.00,23.62,26.67,29.13,4.70,24.98,1019.86,2043.00,3438.06,3263.42,3574.05,350.18,348.34,0.85,0000 0000 0000 0000 000000
2015-07-27 07:54:51,0.04,0.01,0.00,23.63,26.71,29.17,4.72,24.92,1019.88,2042.99,3437.38,3263.01,3573.55,349.75,347.95,0.88,0000 0000 0000 0000 000000
2015-07-27 07:59:52,-0.01,0.01,0.00,23.62,26.75,29.21,4.78,25.01,1019.93,2042.92,3436.99,3262.95,3573.02,350.34,348.03,0.91,0000 0000 0000 0000 000000
2015-07-27 08:04:54,-0.01,0.01,0.00,23.62,26.78,29.24,4.72,24.91,1020.00,2042.36,3436.37,3262.25,3572.53,349.43,347.65,0.94,0000 0000 0000 0000 000000
2015-07-27 08:09:55,-0.02,0.01,0.00,23.62,26.81,29.27,4.74,25.04,1019.99,2042.05,3435.77,3261.99,3572.01,349.54,347.67,0.97,0000 0000 0000 0000 000000
2015-07-27 08:14:56,0.04,0.01,0.00,23.61,26.84,29.29,4.77,24.99,1019.99,2042.01,3435.09,3261.66,3571.78,349.82,347.81,1.00,0000 0000 0000 0000 000000
2015-07-27 08:19:58,0.03,0.02,0.00,23.62,26.86,29.30,4.82,25.29,1020.01,2042.00,3435.00,3261.10,3571.14,349.98,347.97,1.03,0000 0000 0000 0000 000000
2015-07-27 08:24:59,0.00,0.02,0.00,23.62,26.88,29.32,4.77,24.88,1020.02,2041.99,3434.97,3261.01,3571.00,349.90,347.75,1.05,0000 0000 0000 0000 000000
2015-07-27 08:30:00,0.02,0.02,0.00,23.62,26.90,29.34,4.73,24.91,1020.03,2041.98,3434.42,3261.00,3570.95,350.11,348.21,1.08,0000 0000 0000 0000 000000
2015-07-27 08:35:01,-0.01,0.02,0.00,23.62,26.92,29.36,4.76,24.87,1020.03,2041.78,3434.01,3260.64,3570.23,349.90,348.03,1.11,0000 0000 0000 0000 000000
2015-07-27 08:40:03,-0.05,0.02,0.00,23.63,26.95,29.38,4.72,24.97,1020.03,2041.27,3433.98,3260.07,3570.00,349.61,347.90,1.14,0000 0000 0000 0000 000000
2015-07-27 08:45:04,0.00,0.01,0.00,23.64,26.96,29.38,4.77,24.90,1020.03,2041.14,3433.75,3260.01,3569.98,350.04,348.06,1.17,0000 0000 0000 0000 000000
2015-07-27 08:50:05,0.01,0.01,0.00,23.63,26.97,29.39,4.71,24.89,1020.03,2041.03,3433.16,3260.00,3569.69,349.77,347.91,1.20,0000 0000 0000 0000 000000
2015-07-27 08:55:06,0.01,0.02,0.00,23.64,27.00,29.41,4.79,24.91,1020.03,2041.03,3433.00,3259.98,3569.10,350.40,348.35,1.23,0000 0000 0000 0000 000000
2015-07-27 09:00:07,0.01,0.02,0.00,23.64,27.00,29.41,4.78,24.97,1020.03,2041.01,3432.98,3259.86,3569.01,350.16,348.33,1.26,0000 0000 0000 0000 000000
2015-07-27 09:05:09,0.02,0.02,0.00,23.65,27.02,29.43,4.84,24.95,1020.04,2041.00,3432.83,3259.38,3568.99,350.41,348.38,1.29,0000 0000 0000 0000 000000
2015-07-27 09:10:10,0.03,0.02,0.00,23.65,27.02,29.44,4.75,24.87,1020.04,2041.00,3432.08,3259.05,3568.80,350.56,348.71,1.32,0000 0000 0000 0000 000000
2015-07-27 09:15:12,0.01,0.02,0.00,23.65,27.05,29.44,4.77,24.88,1020.05,2041.00,3431.97,3258.99,3568.13,349.73,347.70,1.35,0000 0000 0000 0000 000000
2015-07-27 09:20:13,0.03,0.02,0.00,23.65,27.05,29.46,4.81,25.15,1020.05,2041.00,3431.13,3258.87,3567.99,350.14,348.08,1.38,0000 0000 0000 0000 000000
2015-07-27 09:25:14,0.03,0.02,0.00,23.65,27.06,29.46,4.77,24.98,1020.05,2040.99,3431.00,3258.28,3567.85,349.97,348.09,1.41,0000 0000 0000 0000 000000
2015-07-27 09:30:16,0.02,0.02,0.00,23.65,27.07,29.47,4.78,24.88,1020.07,2040.98,3430.89,3258.04,3567.25,349.90,347.89,1.44,0000 0000 0000 0000 000000
2015-07-27 09:35:17,0.02,0.02,0.00,23.64,27.07,29.48,4.73,24.88,1020.12,2040.95,3430.19,3258.00,3567.01,349.76,347.78,1.46,0000 0000 0000 0000 000000
2015-07-27 10:08:56,0.00,0.00,0.00,22.41,26.99,26.07,4.62,25.54,1019.48,1975.80,3307.20,3171.70,3463.47,335.86,335.20,0.00,0000 0000 0000 0000 000000
2015-07-27 10:13:57,0.00,0.00,0.00,22.59,26.88,27.18,4.72,26.33,1019.64,2041.96,3414.74,3276.28,3578.05,349.82,349.09,0.03,0000 0000 0000 0000 000000
2015-07-27 10:18:58,0.04,0.00,0.00,22.78,26.79,27.88,4.73,26.24,1019.97,2041.86,3410.77,3274.33,3575.55,349.99,349.03,0.06,0000 0000 0000 0000 000000
2015-07-27 10:23:59,0.05,0.01,0.00,22.96,26.73,28.38,4.74,26.20,1020.03,2041.95,3409.75,3274.00,3574.89,349.73,348.73,0.09,0000 0000 0000 0000 000000
2015-07-27 10:29:00,0.05,0.01,0.00,23.19,26.70,28.52,4.71,26.15,1020.06,2041.96,3409.03,3273.84,3574.10,349.87,348.52,0.12,0000 0000 0000 0000 000000
2015-07-27 10:34:01,0.04,0.01,0.00,23.51,26.70,28.62,4.79,26.08,1020.15,2041.96,3408.74,3273.28,3573.93,349.98,348.26,0.15,0000 0000 0000 0000 000000
2015-07-27 10:39:03,0.04,0.01,0.00,23.59,26.72,28.79,4.78,26.09,1020.33,2041.95,3408.04,3273.00,3573.11,350.00,348.46,0.18,0000 0000 0000 0000 000000
2015-07-27 10:44:04,0.07,0.01,0.00,23.55,26.76,28.93,4.75,25.93,1020.49,2041.88,3407.10,3272.50,3572.49,349.99,348.28,0.21,0000 0000 0000 0000 000000
2015-07-27 10:49:05,-0.01,0.01,0.00,23.59,26.81,29.05,4.74,25.80,1020.51,2041.56,3406.00,3271.95,3571.61,350.10,348.33,0.24,0000 0000 0000 0000 000000
2015-07-27 10:54:06,0.03,0.01,0.00,23.57,26.85,29.17,4.76,25.82,1020.52,2041.21,3405.15,3271.15,3570.88,349.77,348.20,0.27,0000 0000 0000 0000 000000
2015-07-27 10:59:07,0.03,0.01,0.00,23.63,26.90,29.27,4.75,25.75,1020.52,2041.05,3404.55,3270.97,3570.12,349.55,348.08,0.30,0000 0000 0000 0000 000000
2015-07-27 11:04:09,0.08,0.02,0.00,23.66,26.94,29.35,4.81,25.83,1020.52,2041.03,3403.53,3270.25,3569.43,349.74,347.98,0.32,0000 0000 0000 0000 000000
2015-07-27 11:09:10,0.07,0.02,0.00,23.67,26.98,29.42,4.76,25.59,1020.52,2041.01,3402.57,3269.66,3568.61,350.02,348.22,0.35,0000 0000 0000 0000 000000
2015-07-27 11:14:11,0.06,0.02,0.00,23.69,27.02,29.46,4.78,25.68,1020.52,2041.00,3401.35,3268.97,3567.80,349.89,348.18,0.38,0000 0000 0000 0000 000000
2015-07-27 11:19:12,0.10,0.02,0.00,23.68,27.05,29.51,4.74,25.56,1020.52,2041.00,3400.38,3268.17,3566.62,349.43,347.63,0.41,0000 0000 0000 0000 000000
2015-07-27 11:24:14,0.10,0.03,0.00,23.68,27.07,29.52,4.79,25.49,1020.53,2040.96,3398.98,3267.04,3565.53,349.91,348.24,0.44,0000 0000 0000 0000 000000
2015-07-27 11:29:15,0.09,0.03,0.00,23.67,27.10,29.56,4.75,25.57,1020.58,2040.96,3397.69,3266.02,3564.37,349.69,347.96,0.47,0000 0000 0000 0000 000000
2015-07-27 11:34:17,0.10,0.03,0.00,23.67,27.12,29.58,4.73,25.63,1020.63,2040.91,3396.36,3265.10,3563.26,349.73,347.92,0.50,0000 0000 0000 0000 000000
2015-07-27 11:39:18,0.05,0.03,0.00,23.67,27.14,29.60,4.80,25.70,1020.69,2040.76,3395.23,3264.40,3562.47,350.35,348.83,0.53,0000 0000 0000 0000 000000
2015-07-27 11:44:20,-0.04,0.03,0.00,23.65,27.15,29.61,4.81,25.44,1020.75,2040.28,3394.46,3264.00,3561.97,349.90,348.24,0.56,0000 0000 0000 0000 000000
2015-07-27 11:49:21,0.05,0.03,0.00,23.65,27.17,29.63,4.74,25.44,1020.82,2040.19,3393.91,3263.63,3561.24,349.74,348.13,0.59,0000 0000 0000 0000 000000
2015-07-27 11:54:22,0.05,0.04,0.00,23.64,27.17,29.64,4.77,25.45,1020.65,2040.20,3393.04,3263.03,3560.80,350.43,348.74,0.62,0000 0000 0000 0000 000000
2015-07-27 11:59:23,0.06,0.04,0.00,23.64,27.20,29.65,4.69,25.57,1020.55,2040.18,3392.08,3262.82,3560.03,349.87,348.43,0.65,0000 0000 0000 0000 000000
2015-07-27 12:04:25,0.05,0.04,0.00,23.63,27.20,29.66,4.68,25.59,1020.64,2040.07,3391.25,3262.10,3559.53,350.01,348.43,0.68,0000 0000 0000 0000 000000
2015-07-27 12:09:26,0.01,0.04,0.00,23.62,27.20,29.66,4.83,25.46,1020.66,2040.07,3390.99,3261.99,3559.00,350.60,348.93,0.71,0000 0000 0000 0000 000000
2015-07-27 12:14:27,0.06,0.04,0.00,23.63,27.21,29.65,4.79,25.40,1020.65,2040.07,3390.35,3261.65,3558.69,350.46,348.78,0.74,0000 0000 0000 0000 000000
2015-07-27 12:19:28,0.02,0.04,0.00,23.64,27.22,29.66,4.72,25.57,1020.55,2040.03,3389.75,3260.94,3557.90,349.47,347.69,0.76,0000 0000 0000 0000 000000
2015-07-27 12:24:29,0.30,0.05,0.00,23.64,27.22,29.63,4.85,25.48,1020.54,2040.01,3386.28,3258.37,3555.28,350.06,348.63,0.79,0000 0000 0000 0000 000000
2015-07-27 12:29:30,0.03,0.05,0.00,23.62,27.22,29.65,4.77,25.48,1020.53,2040.03,3385.25,3258.00,3554.90,350.36,348.62,0.82,0000 0000 0000 0000 000000
2015-07-27 12:34:32,0.03,0.05,0.00,23.64,27.22,29.67,4.79,25.52,1020.52,2040.04,3384.94,3257.91,3554.15,350.23,348.61,0.85,0000 0000 0000 0000 000000
2015-07-27 12:39:33,0.05,0.06,0.00,23.65,27.22,29.68,4.79,25.51,1020.52,2040.01,3384.12,3257.20,3553.97,349.61,347.96,0.88,0000 0000 0000 0000 000000
2015-07-27 12:44:34,0.03,0.06,0.00,23.65,27.23,29.66,4.81,25.50,1020.53,2040.00,3383.87,3257.01,3553.21,350.13,348.30,0.91,0000 0000 0000 0000 000000
2015-07-27 12:49:35,0.02,0.06,0.00,23.63,27.24,29.67,4.75,25.41,1020.53,2040.02,3383.09,3256.99,3553.00,349.63,348.13,0.94,0000 0000 0000 0000 000000
2015-07-27 12:54:37,0.08,0.06,0.00,23.62,27.24,29.67,4.75,25.41,1020.54,2040.01,3382.49,3256.38,3552.44,350.24,348.55,0.97,0000 0000 0000 0000 000000
2015-07-27 12:59:38,0.01,0.06,0.00,23.63,27.24,29.70,4.80,25.48,1020.53,2040.02,3381.99,3256.01,3552.01,350.58,348.65,1.00,0000 0000 0000 0000 000000
2015-07-27 13:04:39,0.05,0.06,0.00,23.63,27.24,29.70,4.72,25.49,1020.53,2040.00,3381.19,3255.92,3551.36,349.65,348.02,1.03,0000 0000 0000 0000 000000
2015-07-27 13:09:41,0.07,0.06,0.00,23.63,27.24,29.71,4.67,25.35,1020.54,2040.00,3380.23,3255.14,3550.73,349.73,348.08,1.06,0000 0000 0000 0000 000000
2015-07-27 13:14:42,0.04,0.06,0.00,23.62,27.24,29.72,4.84,25.52,1020.53,2040.00,3379.57,3254.86,3549.94,350.02,348.11,1.09,0000 0000 0000 0000 000000
2015-07-27 13:19:43,0.07,0.07,0.00,23.62,27.24,29.73,4.76,25.44,1020.54,2040.00,3378.72,3254.11,3549.12,349.70,347.84,1.12,0000 0000 0000 0000 000000
2015-07-27 13:24:44,0.02,0.07,0.00,23.62,27.24,29.69,4.74,25.48,1020.53,2040.00,3378.00,3254.00,3548.85,348.94,347.36,1.15,0000 0000 0000 0000 000000
2015-07-27 13:29:46,0.05,0.07,0.00,23.62,27.24,29.71,4.73,25.48,1020.54,2040.00,3377.18,3253.80,3548.06,349.62,347.97,1.17,0000 0000 0000 0000 000000
2015-07-27 13:34:47,0.07,0.07,0.00,23.62,27.24,29.71,4.80,25.52,1020.55,2040.00,3376.36,3253.09,3547.43,349.97,348.13,1.20,0000 0000 0000 0000 000000
2015-07-27 13:39:49,0.02,0.07,0.00,23.63,27.23,29.67,4.81,25.39,1020.57,2040.00,3375.70,3252.99,3546.89,350.22,348.66,1.23,0000 0000 0000 0000 000000
2015-07-27 13:44:50,0.06,0.07,0.00,23.62,27.23,29.70,4.69,25.32,1020.55,2040.00,3374.90,3252.63,3546.09,350.11,348.41,1.26,0000 0000 0000 0000 000000
2015-07-27 13:49:51,0.05,0.08,0.00,23.62,27.23,29.69,4.70,25.41,1020.55,2040.00,3374.06,3252.03,3545.53,350.38,348.68,1.29,0000 0000 0000 0000 000000
2015-07-27 13:54:53,0.04,0.08,0.00,23.62,27.22,29.69,4.78,25.55,1020.54,2040.00,3373.25,3251.92,3544.90,350.11,348.36,1.32,0000 0000 0000 0000 000000
2015-07-27 13:59:54,0.10,0.08,0.00,23.63,27.22,29.69,4.74,25.54,1020.55,2040.00,3372.05,3251.03,3543.91,350.37,348.54,1.35,0000 0000 0000 0000 000000
2015-07-27 14:04:55,0.13,0.08,0.00,23.65,27.22,29.68,4.81,25.59,1020.55,2040.00,3370.25,3250.07,3542.41,350.29,348.54,1.38,0000 0000 0000 0000 000000
2015-07-27 14:09:56,0.07,0.08,0.00,23.65,27.22,29.69,4.82,25.51,1020.54,2040.00,3369.27,3249.58,3541.73,350.22,348.32,1.41,0000 0000 0000 0000 000000
2015-07-27 14:14:57,0.05,0.09,0.00,23.64,27.22,29.67,4.74,25.48,1020.55,2040.00,3368.38,3249.02,3541.01,349.68,347.98,1.44,0000 0000 0000 0000 000000
2015-07-27 14:19:58,0.04,0.09,0.00,23.63,27.22,29.68,4.74,25.49,1020.55,2040.00,3367.69,3248.93,3540.31,349.68,347.99,1.47,0000 0000 0000 0000 000000
2015-07-27 14:24:59,0.07,0.09,0.00,23.62,27.22,29.68,4.75,25.48,1020.53,2040.00,3366.83,3248.22,3539.68,350.15,348.44,1.50,0000 0000 0000 0000 000000
2015-07-27 14:30:01,0.03,0.09,0.00,23.64,27.22,29.70,4.92,25.48,1020.54,2040.00,3366.00,3248.00,3538.99,350.89,349.17,1.53,0000 0000 0000 0000 000000
2015-07-27 14:35:02,0.05,0.09,0.00,23.64,27.22,29.67,4.80,25.44,1020.55,2040.00,3365.13,3247.94,3538.24,350.10,348.30,1.56,0000 0000 0000 0000 000000
2015-07-27 14:40:03,0.08,0.10,0.00,23.63,27.22,29.68,4.76,25.48,1020.55,2040.00,3364.18,3247.17,3537.51,349.55,347.46,1.58,0000 0000 0000 0000 000000
2015-07-27 14:45:04,0.04,0.10,0.00,23.62,27.22,29.68,4.85,25.47,1020.56,2040.00,3363.17,3246.96,3536.85,350.57,349.03,1.61,0000 0000 0000 0000 000000
2015-07-27 14:50:05,0.08,0.10,0.00,23.62,27.22,29.68,4.76,25.43,1020.54,2040.00,3362.25,3246.19,3536.05,349.96,348.15,1.64,0000 0000 0000 0000 000000
2015-07-27 14:55:06,0.05,0.10,0.00,23.63,27.22,29.67,4.76,25.38,1020.54,2040.00,3361.40,3246.00,3535.36,350.50,348.84,1.67,0000 0000 0000 0000 000000
2015-07-27 15:00:07,0.05,0.10,0.00,23.65,27.22,29.66,4.78,25.47,1020.55,2040.00,3360.57,3245.79,3534.75,349.82,348.09,1.70,0000 0000 0000 0000 000000
2015-07-27 15:05:09,0.06,0.10,0.00,23.65,27.22,29.70,4.64,25.38,1020.62,2040.00,3359.61,3245.09,3534.02,349.51,347.78,1.73,0000 0000 0000 0000 000000
2015-07-27 15:10:10,0.03,0.11,0.00,23.65,27.22,29.66,4.83,25.45,1020.65,2040.00,3358.85,3244.98,3533.30,350.34,348.44,1.76,0000 0000 0000 0000 000000
2015-07-27 15:15:11,0.07,0.11,0.00,23.64,27.22,29.65,4.77,25.38,1020.82,2040.00,3357.99,3244.42,3532.67,350.06,348.46,1.79,0000 0000 0000 0000 000000
2015-07-27 15:20:13,0.03,0.11,0.00,23.65,27.22,29.66,4.77,25.46,1020.97,2040.00,3357.12,3244.01,3532.00,349.86,348.42,1.82,0000 0000 0000 0000 000000
2015-07-27 15:25:14,0.06,0.11,0.00,23.67,27.22,29.65,4.71,25.35,1020.98,2040.00,3356.41,3243.84,3531.19,349.99,348.54,1.85,0000 0000 0000 0000 000000
2015-07-27 15:30:15,0.06,0.11,0.00,23.67,27.22,29.65,4.73,25.41,1020.85,2040.00,3355.60,3243.09,3530.60,350.02,348.41,1.88,0000 0000 0000 0000 000000
2015-07-27 15:35:16,0.03,0.11,0.00,23.66,27.22,29.65,4.82,25.39,1020.89,2040.00,3354.78,3242.98,3529.97,349.98,348.41,1.91,0000 0000 0000 0000 000000